Flag for Germany Weather past 2 weeks in Riesa, Saxony, Germany

Now
63 °F

Partly sunny.


Feels Like: 63 °F
Forecast: 53 / 67 °F
Wind: 2 mph from Southwest

Location: Dresden-Klotzsche

Current Time: Aug 22, 2014 at 8:46:38 PM

Latest Report: Aug 22, 2014 at 8:00 PM


Visibility: 25 mi

Pressure: 29.91 "Hg

Humidity: 46%

Dew point: 42 °F

Location of RiesaLocation

Historic Weather in Riesa — Graph

°F

Riesa temperature yesterday

Maximum temperature yesterday: 66 °F (at 1:00 PM)
Minimum temperature yesterday: 50 °F (at 7:00 AM)
Average temperature yesterday: 58 °F

Past Weeks' High & Low Weather Summary

 TemperatureHumidityPressure
High85 °F (Aug 10, 6:00 PM)96% (Aug 8, 7:00 AM)30.03 "Hg (Aug 8, 7:00 AM)
Low49 °F (Aug 22, 6:00 AM)36% (Aug 12, 4:00 PM)29.65 "Hg (Aug 13, 7:00 PM)
Average63 °F67%29.89 "Hg
* Reported Aug 7 7:00 PM — Aug 22 7:00 PM, Riesa, Weather by CustomWeather, © 2014

Note: Actual official high and low records may vary slightly from our data, if they occured in-between our weather recording intervals... More about our weather records

Advertising

Riesa weather history for previous 24 hours

 ConditionsComfort  
Time TempWeatherWind HumidityBarometerVisibility
7:00 PM
Aug 22
66 °FOvercast.5 mph41%29.90 "Hg25 mi
6:00 PM69 °FOvercast.7 mph38%29.90 "Hg22 mi
5:00 PM69 °FOvercast.5 mph37%29.91 "Hg22 mi
4:00 PM68 °FOvercast.5 mph36%29.92 "Hg25 mi
3:00 PM69 °FOvercast.5 mph36%29.93 "Hg25 mi
2:00 PM68 °FPartly sunny.6 mph38%29.94 "Hg25 mi
1:00 PM68 °FPartly sunny.5 mph40%29.95 "Hg25 mi
12:00 PM66 °FPartly sunny.2 mph43%29.97 "Hg25 mi
11:00 AM63 °FPartly sunny.3 mph56%29.98 "Hg22 mi
10:00 AM58 °FOvercast.3 mph71%29.99 "Hg22 mi
9:00 AM54 °FOvercast.5 mph75%30.00 "Hg25 mi
8:00 AM52 °FScattered clouds.3 mph78%30.00 "Hg25 mi
7:00 AM50 °FScattered clouds.5 mph82%30.00 "Hg22 mi
6:00 AM49 °FPassing clouds.5 mph84%30.00 "Hg25 mi
4:00 AM49 °FClear.5 mph86%30.01 "Hg25 mi
3:00 AM51 °FPassing clouds.5 mph85%30.02 "Hg25 mi
2:00 AM52 °FPassing clouds.3 mph82%30.02 "Hg22 mi
1:00 AM53 °FOvercast.3 mph78%30.02 "Hg22 mi
12:00 AM54 °FPassing clouds.3 mph76%30.03 "Hg22 mi
11:00 PM
Aug 21
56 °FPassing clouds.3 mph67%30.03 "Hg25 mi
10:00 PM59 °FPassing clouds.1 mph59%30.02 "Hg28 mi
9:00 PM60 °FPassing clouds.1 mph58%30.01 "Hg31 mi
8:00 PM63 °FPartly sunny.1 mph49%30.00 "Hg37 mi
Weather by CustomWeather, © 2014

See weather overviewHow to use our weather pages